Find Starlink 31222

NORAD ID: 58828 Int'l Des: 2024-017 Owner: SPXS Country: US Constellation: starlink operational
LEOCIRCULAR

Current View

Loading 3D Globe...

About Starlink 31222

Starlink 31222 (NORAD 58828) is a starlink constellation satellite (v2 mini) launched Jan 24, 2024 by SPXS of US. It operates in LEO, CIRCULAR orbit with a mass of 730.00 kg.

Upcoming Passes

Passes for default location (London). Set your location on the main map for personalized predictions.

Altitude History

Loading altitude history...

Two-Line Element Set

1 58828U 24017C 26263.57871620 .00000139 00000-0 15253-4 0 9993
2 58828 53.1602 17.0259 0001209 78.4520 281.6619 15.34389844149929
Epoch: Sep 20, 2026 • Age: 13 hours

Current Status

Altitude 466.1 km
Apogee / Perigee N/A
Velocity 7.64 km/s
Sub-Earth Point 41.65°N, 108.97°E
Launch Date Jan 24, 2024
Age 2.6 years
Type internet

Technical Details

Classification Payload
Mass 730.00 kg
Dry Mass 700.00 kg
Length 0.30 m
Span 29.00 m
Shape ? Box + pan
Manufacturer SPXS
Bus Type Starlink V2M
Phase Status In Orbit
Owner/State SPXS/US

Most Searched